[[{"header":{"parameterUnit":"m.s-1","parameterCategory":1,"la1":30.2991,"la2":30.254,"lo1":-89.0895,"lo2":-89.0444,"dy":0.0017,"dx":0.0017,"nx":28,"ny":28,"refTime":"2024-04-01T09:00:00:Z","depth":0,"parameterNumber":2,"parameterNumberName":"U-component_of_WINDS"},"data":[0,0,0,0,0,0,0,0,0,0,0,0,0,0,0,0,0,0,0,0,0,0,0,0,0,0,0,0,0,0,0,0,0,0,0,0,0,0,0,0,0,0,0,0,0,0,0,0,0,0,0,0,0,0,0,0,0,0,-2.7857,-2.7857,0,-2.787,-2.7871,-2.7871,-2.7837,-2.7836,-2.7835,-2.7834,-2.7846,-2.7848,-2.7849,0,0,0,0,0,0,0,0,0,0,0,0,0,-2.7801,-2.7803,-2.7857,-2.7857,-2.7858,-2.787,-2.7871,-2.7871,-2.7837,-2.7836,-2.7835,-2.7834,-2.7846,-2.7847,-2.7849,0,0,0,0,0,0,0,0,0,0,0,0,0,-2.7821,-2.7803,-2.7857,-2.7842,-2.7841,-2.787,-2.7871,-2.7871,-2.7838,-2.7836,-2.7834,-2.7833,-2.7845,-2.7847,-2.7849,-2.7893,0,0,-2.7855,-2.7856,0,0,0,0,0,0,0,0,-2.782,-2.7823,-2.7844,-2.7843,-2.7842,-2.7851,-2.7855,-2.7878,-2.7838,-2.7839,-2.7834,-2.7832,-2.7849,-2.785,-2.7856,-2.7893,-2.7894,-2.7855,-2.7857,-2.7857,-2.7858,0,0,0,0,0,0,0,-2.7819,-2.7823,-2.7862,-2.7845,-2.7843,-2.7835,-2.7836,-2.786,-2.7853,-2.7839,-2.7836,-2.7838,-2.7848,-2.7855,-2.7856,-2.7894,-2.7855,-2.7857,-2.7858,-2.7859,-2.7966,-2.7968,0,0,0,0,0,0,-2.782,-2.7822,-2.7862,-2.7863,-2.7827,-2.7837,-2.7838,-2.7849,-2.7852,-2.7851,-2.784,-2.7837,-2.7852,-2.7854,-2.7857,-2.7906,-2.7857,-2.7859,-2.786,-2.7965,-2.7967,-2.7968,0,0,0,0,0,0,-2.7819,-2.7824,-2.7861,-2.7842,-2.7846,-2.784,-2.7853,-2.7851,-2.7857,-2.7853,-2.7851,-2.7848,-2.7851,-2.7854,-2.7884,-2.7906,-2.786,-2.7862,-2.7963,-2.7965,-2.7968,-2.8007,0,0,0,0,0,0,-2.7817,-2.7823,-2.784,-2.7842,-2.7847,-2.7889,-2.7854,-2.7852,-2.7861,-2.7857,-2.786,-2.7859,-2.785,-2.7881,-2.7886,-2.7908,-2.7863,-2.7961,-2.7964,-2.7967,-2.8004,-2.801,-2.8016,0,0,0,0,0,-2.7815,-2.7851,-2.7841,-2.7846,-2.7868,-2.789,-2.7893,-2.7882,-2.7863,-2.7879,-2.7876,-2.7859,-2.7904,-2.7885,-2.789,-2.7913,-2.7959,-2.7963,-2.7967,-2.8001,-2.8009,-2.8016,0,0,0,0,0,0,-2.7851,-2.7851,-2.784,-2.7877,-2.7884,-2.7884,-2.7905,-2.7891,-2.7903,-2.7899,-2.7885,-2.7886,-2.7918,-2.7919,-2.7897,-2.7955,-2.7928,-2.7933,-2.7952,-2.796,-2.7967,-2.7964,-2.7865,0,0,0,0,0,-2.7863,-2.7882,-2.7881,-2.7914,-2.7918,-2.7911,-2.792,-2.7911,-2.7917,-2.792,-2.7919,-2.7926,-2.7941,-2.7951,-2.7965,-2.8005,-2.8004,-2.8023,-2.803,-2.8035,-2.8038,-2.8058,-2.8066,-2.7981,-2.7981,-2.7981,0,0,-2.7888,-2.7891,-2.7903,-2.7921,-2.7925,-2.7943,-2.7913,-2.7935,-2.7948,-2.7923,-2.795,-2.7951,-2.7957,-2.7991,-2.8006,-2.7993,-2.8062,-2.804,-2.8044,-2.8044,-2.8062,-2.807,-2.8077,-2.7983,-2.7983,-2.7983,0,0,-2.7943,-2.7948,-2.7975,-2.798,-2.7987,-2.7982,-2.7989,-2.7992,-2.7991,-2.8019,-2.8,-2.8016,-2.8043,-2.8047,-2.8053,-2.8111,-2.8094,-2.8116,-2.8148,-2.8167,-2.8174,-2.818,-2.8198,-2.8205,-2.812,-2.812,-2.812,0,-2.7973,-2.8001,-2.7991,-2.8013,-2.8021,-2.8,-2.8026,-2.8032,-2.8043,-2.8048,-2.8034,-2.8067,-2.8069,-2.8104,-2.8118,-2.8124,-2.813,-2.8114,-2.8174,-2.818,-2.8185,-2.8202,-2.8209,-2.8123,-2.8122,-2.8122,-2.8122,0,-2.8037,-2.8057,-2.8078,-2.8089,-2.8099,-2.8124,-2.8116,-2.8128,-2.8119,-2.8116,-2.8144,-2.8147,-2.816,-2.8169,-2.816,-2.8201,-2.8193,-2.8177,-2.8149,-2.8195,-2.8211,-2.8218,-2.8126,-2.8125,-2.8124,-2.8124,0,0,-2.8112,-2.8118,-2.8126,-2.813,-2.8136,-2.8151,-2.8175,-2.8188,-2.8198,-2.8207,-2.8225,-2.8249,-2.8234,-2.824,-2.8232,-2.8249,-2.8292,-2.8231,-2.823,-2.824,-2.8336,-2.8346,-2.8354,-2.8283,-2.8284,-2.8285,-2.8335,0,-2.8165,-2.8205,-2.8196,-2.8236,-2.8253,-2.8234,-2.8254,-2.826,-2.8258,-2.8272,-2.827,-2.8286,-2.8266,-2.827,-2.8286,-2.8283,-2.8311,-2.828,-2.8298,-2.8298,-2.8294,-2.8363,-2.8374,-2.842,-2.8341,-2.8342,-2.8343,0,-2.8231,-2.8242,-2.8283,-2.8286,-2.8292,-2.8311,-2.8322,-2.8336,-2.8342,-2.834,-2.8348,-2.8336,-2.8359,-2.8333,-2.8363,-2.8343,-2.835,-2.835,-2.8351,-2.835,-2.8321,-2.8361,-2.8435,-2.8441,-2.8353,-2.8352,-2.8351,0,-2.8278,-2.8304,-2.8331,-2.8336,-2.8341,-2.8354,-2.8356,-2.8361,-2.837,-2.838,-2.8385,-2.8398,-2.8404,-2.8415,-2.8406,-2.8389,-2.8437,-2.8411,-2.8434,-2.8434,-2.8442,-2.8441,-2.8516,-2.8452,-2.8452,-2.8452,-2.8452,0,-2.8336,-2.8361,-2.8353,-2.8369,-2.8397,-2.8387,-2.8414,-2.8415,-2.8419,-2.8435,-2.842,-2.8435,-2.8425,-2.8439,-2.8433,-2.8458,-2.8461,-2.8459,-2.8456,-2.8458,-2.8458,-2.8461,-2.8456,-2.8454,-2.8453,-2.8453,-2.8452,0,-2.8393,-2.8388,-2.8416,-2.8419,-2.842,-2.844,-2.8442,-2.8457,-2.8455,-2.8475,-2.8479,-2.8475,-2.849,-2.8484,-2.8501,-2.8497,-2.8528,-2.8523,-2.8525,-2.8523,-2.8545,-2.8542,-2.8621,-2.863,-2.8563,-2.8564,-2.8564,0,-2.8428,-2.8447,-2.8452,-2.8461,-2.8465,-2.8481,-2.849,-2.8481,-2.8491,-2.8499,-2.8513,-2.8528,-2.8538,-2.8564,-2.8562,-2.8575,-2.8568,-2.8595,-2.857,-2.8571,-2.8566,-2.8563,-2.8564,-2.8599,-2.86,-2.8601,-2.8601,0,-2.8491,-2.8488,-2.8501,-2.8514,-2.8525,-2.8534,-2.8542,-2.8551,-2.8543,-2.8554,-2.857,-2.8579,-2.8596,-2.861,-2.8621,-2.8623,-2.861,-2.861,-2.8615,-2.8616,-2.8616,-2.8614,-2.8536,-2.8607,-2.8607,-2.8606,-2.8606,-2.8606,-2.8536,-2.8552,-2.8557,-2.8572,-2.8578,-2.8586,-2.8599,-2.8599,-2.8612,-2.8625,-2.862,-2.8638,-2.8644,-2.8657,-2.8661,-2.8675,-2.8664,-2.8673,-2.8674,-2.8676,-2.8677,-2.8616,-2.8677,-2.8677,-2.8677,-2.8677,-2.8677,0,-2.8596,-2.8599,-2.8613,-2.8625,-2.8637,-2.8625,-2.8634,-2.8644,-2.866,-2.8666,-2.8678,-2.8696,-2.8709,-2.8709,-2.8722,-2.8732,-2.8727,-2.8736,-2.8733,-2.8734,-2.8687,-2.868,-2.874,-2.874,-2.874,-2.874,-2.874,-2.874,-2.8628,-2.8653,-2.8651,-2.8678,-2.8681,-2.8698,-2.8704,-2.8711,-2.8716,-2.8736,-2.8748,-2.8748,-2.8751,-2.8764,-2.8776,-2.8775,-2.8779,-2.879,-2.8787,-2.8743,-2.8737,-2.8731,-2.8724,-2.8792,-2.8792,-2.8832,-2.8832,-2.8833]},{"header":{"parameterUnit":"m.s-1","parameterCategory":1,"la1":30.2991,"la2":30.254,"lo1":-89.0895,"lo2":-89.0444,"dy":0.0017,"dx":0.0017,"nx":28,"ny":28,"refTime":"2024-04-01T09:00:00:Z","depth":0,"parameterNumber":3,"parameterNumberName":"V-component_of_WINDS"},"data":[0,0,0,0,0,0,0,0,0,0,0,0,0,0,0,0,0,0,0,0,0,0,0,0,0,0,0,0,0,0,0,0,0,0,0,0,0,0,0,0,0,0,0,0,0,0,0,0,0,0,0,0,0,0,0,0,0,0,3.8899,3.89,0,3.8995,3.8996,3.8997,3.9032,3.9031,3.9031,3.9031,3.9129,3.9131,3.9134,0,0,0,0,0,0,0,0,0,0,0,0,0,3.8748,3.8751,3.8899,3.89,3.8901,3.8995,3.8996,3.8997,3.9032,3.9031,3.9031,3.9031,3.9128,3.9131,3.9135,0,0,0,0,0,0,0,0,0,0,0,0,0,3.8826,3.8752,3.8898,3.893,3.8933,3.8994,3.8996,3.8998,3.9032,3.9031,3.9031,3.903,3.9127,3.9131,3.9135,3.9172,0,0,3.9148,3.915,0,0,0,0,0,0,0,0,3.8821,3.8831,3.8924,3.8928,3.8932,3.9001,3.8979,3.9056,3.9032,3.8994,3.9031,3.903,3.9086,3.9094,3.9113,3.9177,3.9181,3.9149,3.9151,3.9153,3.9155,0,0,0,0,0,0,0,3.8816,3.8827,3.8937,3.8925,3.893,3.894,3.895,3.8994,3.9042,3.8998,3.9,3.9011,3.9089,3.9109,3.9116,3.9182,3.9149,3.9153,3.9155,3.9157,3.9286,3.9287,0,0,0,0,0,0,3.8805,3.8823,3.8934,3.894,3.8874,3.8943,3.8955,3.8979,3.9042,3.9051,3.9012,3.9013,3.9102,3.9111,3.9119,3.917,3.9153,3.9157,3.916,3.9285,3.9286,3.9287,0,0,0,0,0,0,3.8802,3.8815,3.893,3.8882,3.8897,3.8946,3.8973,3.8981,3.9002,3.9052,3.9061,3.9023,3.9102,3.9113,3.916,3.9174,3.9159,3.9163,3.9284,3.9286,3.9287,3.927,0,0,0,0,0,0,3.8797,3.8813,3.8827,3.8882,3.89,3.8968,3.8974,3.8984,3.9009,3.9011,3.9066,3.9074,3.9102,3.9153,3.9164,3.918,3.9167,3.9283,3.9285,3.9286,3.9269,3.927,3.9271,0,0,0,0,0,3.8792,3.8817,3.8827,3.884,3.8917,3.8968,3.8979,3.901,3.901,3.9025,3.9059,3.9072,3.917,3.9158,3.917,3.9187,3.9283,3.9285,3.9286,3.9269,3.927,3.9271,0,0,0,0,0,0,3.876,3.8824,3.8837,3.888,3.8919,3.8974,3.8993,3.901,3.9049,3.9049,3.9087,3.9099,3.9144,3.917,3.9155,3.9229,3.9228,3.9232,3.921,3.9212,3.9213,3.9206,3.917,0,0,0,0,0,3.8759,3.8794,3.8848,3.8881,3.89,3.8944,3.8967,3.8989,3.903,3.9046,3.9083,3.9123,3.9163,3.9189,3.9228,3.9273,3.9288,3.9292,3.9293,3.9293,3.9297,3.9327,3.9331,3.9293,3.9293,3.9293,0,0,3.8755,3.8794,3.8814,3.8876,3.8909,3.8946,3.8957,3.8995,3.9024,3.9052,3.9099,3.9128,3.9175,3.9223,3.9245,3.9246,3.9311,3.9295,3.9295,3.9299,3.9329,3.9333,3.9336,3.9295,3.9294,3.9294,0,0,3.8768,3.88,3.8834,3.8867,3.8917,3.8946,3.8954,3.9009,3.9029,3.9078,3.9101,3.9136,3.9203,3.9238,3.9264,3.9296,3.9311,3.9307,3.9312,3.9341,3.9344,3.9347,3.9362,3.9366,3.9311,3.9311,3.9311,0,3.8757,3.8814,3.8848,3.8887,3.8915,3.8944,3.898,3.901,3.907,3.909,3.909,3.9179,3.9212,3.927,3.9279,3.9298,3.931,3.9301,3.9341,3.9344,3.9348,3.9362,3.9367,3.931,3.931,3.931,3.931,0,3.88,3.8839,3.886,3.892,3.895,3.8987,3.9029,3.9056,3.9076,3.9106,3.9158,3.92,3.925,3.9266,3.9284,3.9328,3.9327,3.9333,3.9333,3.935,3.9364,3.937,3.9309,3.931,3.931,3.931,0,0,3.8793,3.8875,3.8882,3.8911,3.8971,3.9003,3.9042,3.9093,3.9117,3.9158,3.9194,3.9253,3.9262,3.9291,3.9315,3.934,3.9367,3.9344,3.9346,3.935,3.9422,3.9418,3.9423,3.9378,3.9379,3.938,3.9419,0,3.8815,3.8888,3.8922,3.898,3.9019,3.905,3.9085,3.9126,3.9156,3.9195,3.9228,3.9271,3.9276,3.9296,3.9322,3.9358,3.9383,3.9356,3.9414,3.9416,3.9403,3.943,3.9425,3.9459,3.9424,3.9425,3.9426,0,3.885,3.8895,3.8956,3.9016,3.9034,3.9064,3.9117,3.9152,3.9201,3.9222,3.9258,3.9282,3.9327,3.9324,3.9388,3.9369,3.9396,3.9418,3.942,3.9427,3.9422,3.9441,3.9471,3.9477,3.9434,3.9434,3.9433,0,3.8843,3.8917,3.8965,3.8989,3.9059,3.9081,3.9111,3.9159,3.919,3.9235,3.9256,3.9305,3.9333,3.9372,3.941,3.9403,3.9472,3.9471,3.9493,3.9492,3.9506,3.9505,3.9543,3.952,3.952,3.952,3.9519,0,3.8865,3.8902,3.8964,3.8993,3.9037,3.9078,3.9121,3.9153,3.9198,3.9236,3.9265,3.93,3.9347,3.9389,3.9418,3.947,3.9481,3.9501,3.9508,3.9499,3.9497,3.9517,3.9517,3.9521,3.9521,3.952,3.952,0,3.8863,3.8905,3.896,3.9024,3.9041,3.9071,3.9126,3.9157,3.919,3.9238,3.9252,3.9304,3.9355,3.9397,3.9463,3.9484,3.9538,3.9546,3.9522,3.9527,3.9547,3.9545,3.9601,3.9611,3.9579,3.9579,3.9579,0,3.8875,3.8905,3.8973,3.9001,3.9032,3.9076,3.9108,3.9151,3.9183,3.9244,3.9269,3.9323,3.9368,3.9449,3.9493,3.9545,3.9556,3.9572,3.9564,3.9555,3.956,3.9558,3.9563,3.9573,3.9573,3.9573,3.9573,0,3.8893,3.8914,3.8959,3.9013,3.9051,3.9094,3.9139,3.9161,3.9212,3.9247,3.9301,3.9337,3.9407,3.9461,3.9519,3.9551,3.9572,3.9576,3.9584,3.9575,3.9561,3.9572,3.9527,3.9574,3.9574,3.9574,3.9574,3.9574,3.89,3.893,3.8984,3.9035,3.9074,3.9116,3.915,3.9189,3.9235,3.9296,3.9319,3.9375,3.9428,3.9508,3.9542,3.9587,3.9589,3.96,3.9603,3.9606,3.9607,3.9553,3.9598,3.9598,3.9598,3.9598,3.9598,0,3.8922,3.8959,3.9005,3.9069,3.911,3.9127,3.9179,3.9212,3.9262,3.931,3.9355,3.9419,3.9473,3.9524,3.9581,3.9608,3.9619,3.9621,3.9621,3.9629,3.96,3.9588,3.9612,3.9612,3.9612,3.9612,3.9612,3.9612,3.8938,3.8991,3.9019,3.9093,3.9131,3.9187,3.9216,3.9256,3.9295,3.9366,3.9412,3.9445,3.9495,3.9557,3.9608,3.9622,3.9643,3.9643,3.966,3.9632,3.963,3.9628,3.9618,3.9647,3.9647,3.9685,3.9685,3.9686]}]]